Location: New Frontier Mobile Home Park
(32.8448°N, 116.9675°W)
Time: 22:54:04
(UTC+00:00)

Sich 1 Rocket - Pass Details

Date: 14 July 2020
Orbit: 615 x 653 km, 82.5° (Epoch: 05 August)

Event Time Altitude Azimuth Distance (km) Brightness Sun altitude
Exits shadow 11:22:34 17° 183° (S) 1,638 5.3 -16.2°
Maximum altitude 11:26:06 85° 95° (E) 653 3.6 -15.7°
Drops below altitude 10° 11:30:38 10° 8° (N) 2,037 6.9 -14.9°
Sets 11:32:52 0° 7° (N) 2,944 7.8 -14.6°
